This is the latest recevied weather packets stored in our database for station/object K3TLB-13. If no packets are shown the sender has not sent any weather packets the latest 1 day(s).
| Time | Temp. | Humidity | Pressure | Rain* | Wind** | Luminosity | Snow |
|---|---|---|---|---|---|---|---|
| 1777982642 | 16.11° C | 68% | 1011.7 hPa | 0 mm | 1.79 m/s, 155° | - | - |
| 1777982342 | 15.56° C | 70% | 1011.7 hPa | 0 mm | 1.79 m/s, 207° | - | - |
| 1777982042 | 15.56° C | 70% | 1011.6 hPa | 0 mm | 0.89 m/s, 146° | - | - |
| 1777981742 | 15.56° C | 71% | 1011.5 hPa | 0 mm | 1.34 m/s, 191° | - | - |
| 1777981442 | 15° C | 70% | 1011.5 hPa | 0 mm | 1.79 m/s, 188° | - | - |
| 1777981142 | 15° C | 71% | 1011.4 hPa | 0 mm | 1.79 m/s, 170° | - | - |
| 1777980843 | 15° C | 71% | 1011.3 hPa | 0 mm | 1.34 m/s, 123° | - | - |
| 1777980545 | 14.44° C | 72% | 1011.2 hPa | 0 mm | 0.89 m/s, 140° | - | - |
| 1777980242 | 14.44° C | 72% | 1011.2 hPa | 0 mm | 0.89 m/s, 161° | - | - |
| 1777979942 | 14.44° C | 72% | 1011.1 hPa | 0 mm | 1.79 m/s, 123° | - | - |
| 1777979643 | 14.44° C | 72% | 1011 hPa | 0 mm | 1.79 m/s, 130° | - | - |
| 1777979343 | 14.44° C | 72% | 1011 hPa | 0 mm | 1.79 m/s, 116° | - | - |
| 1777979042 | 14.44° C | 72% | 1010.8 hPa | 0 mm | 1.34 m/s, 145° | - | - |
| 1777978742 | 13.89° C | 73% | 1010.8 hPa | 0 mm | 1.34 m/s, 120° | - | - |
| 1777978442 | 13.89° C | 73% | 1010.8 hPa | 0 mm | 1.34 m/s, 126° | - | - |
| 1777978142 | 13.89° C | 72% | 1010.8 hPa | 0 mm | 1.34 m/s, 169° | - | - |
| 1777977842 | 13.89° C | 72% | 1010.8 hPa | 0 mm | 1.34 m/s, 145° | - | - |
| 1777977542 | 13.89° C | 73% | 1010.6 hPa | 0 mm | 1.79 m/s, 150° | - | - |
| 1777977243 | 13.89° C | 72% | 1010.6 hPa | 0 mm | 1.34 m/s, 159° | - | - |
| 1777976944 | 13.89° C | 73% | 1010.4 hPa | 0 mm | 1.79 m/s, 157° | - | - |
| 1777976642 | 13.89° C | 73% | 1010.3 hPa | 0 mm | 1.79 m/s, 340° | - | - |
| 1777976342 | 13.89° C | 73% | 1010.3 hPa | 0 mm | 1.34 m/s, 140° | - | - |
| 1777976042 | 13.89° C | 73% | 1010.4 hPa | 0 mm | 1.34 m/s, 159° | - | - |
| 1777975742 | 13.89° C | 73% | 1010.5 hPa | 0 mm | 0.89 m/s, 82° | - | - |
| 1777975442 | 13.89° C | 73% | 1010.3 hPa | 0 mm | 0.45 m/s, 199° | - | - |
* Rain latest hour (hover to see other rain measurements)
** Current wind speed in m/s (hover to see current wind gust speed)